Regional Weather Roundup
Issued by NWS San Diego, CA

Home | Current Version | Previous Version | Text Only | Print | Product List | Glossary On
Versions: 1 2 3 4 5 6 7 8 9 10 11 12 13 14 15 16 17 18 19 20 21 22 23 24 25 26 27 28 29 30 31 32 33 34 35 36 37 38 39 40 41 42 43 44 45 46 47 48 49 50
000
ASUS46 KSGX 251111
RWRSGX

SAN DIEGO HOURLY WEATHER ROUNDUP
NATIONAL WEATHER SERVICE SAN DIEGO CA
400 AM PDT SAT APR 25 2015

NOTE: "FAIR" INDICATES FEW OR NO CLOUDS BELOW 12,000 FEET WITH NO
SIGNIFICANT WEATHER AND/OR OBSTRUCTIONS TO VISIBILITY.

CAZ042-043-060-061-PZZ750-775-251200-

GREATER SAN DIEGO AREA

CITY           SKY/WX    TMP DP  RH WIND       PRES   REMARKS
LINDBERGH FLD  CLOUDY    62  50  64 S3        30.00F
POINT LOMA       N/A     60  51  72 SW5         N/A
CHULA VISTA      N/A     60  54  81 CALM      29.93F
IMPERIAL BEACH CLOUDY    60  53  77 CALM      30.00F
BROWN FIELD    CLOUDY    57  51  80 S3        29.99F
MIRAMAR MCAS   CLOUDY    61  51  70 S6        29.98F
MONTGOMERY FLD CLOUDY    60  51  72 S6        29.99F

$$

NORTH SAN DIEGO COUNTY

CITY           SKY/WX    TMP DP  RH WIND       PRES   REMARKS
CAMP PENDLETON CLOUDY    60  51  72 CALM      29.98F
OCEANSIDE AP   CLOUDY    61  52  72 S3        29.97F
VISTA            N/A     58  52  82 CALM      29.97F
CARLSBAD       CLOUDY    59  52  77 SE5       29.97F
FALLBROOK        N/A     56  56  99 S1        30.00F
SAN MARCOS       N/A     57  52  84 CALM      29.97F
POWAY            N/A     56  53  88 CALM      30.01F

$$

EAST SAN DIEGO COUNTY

CITY           SKY/WX    TMP DP  RH WIND       PRES   REMARKS
RAMONA         CLOUDY    53  50  89 S5        29.98F
SANTEE LAKES     N/A     58  53  81 CALM      29.99F
LA MESA          N/A     57  52  85 S5        29.94F
DESCANSO N       N/A     45  44  96 CALM      29.91S
MT. LAGUNA OBS   N/A     36  36 100 W16       29.57S WCI  26
CAMPO            N/A     48  46  93 SW14      29.95S

$$

ORANGE COUNTY AND THE LOS ANGELES BASIN

CITY           SKY/WX    TMP DP  RH WIND       PRES   REMARKS
JOHN WAYNE AP  CLOUDY    60  50  69 CALM      29.98S
LAKE FOREST FR   N/A     54  50  86 CALM      29.89S
SANTA ANA        N/A     60  54  79 CALM      29.93S
HUNTINGTON BCH   N/A     58  53  83 CALM      30.00S
LOS ALAMITOS   CLOUDY    59  52  77 W5        29.97F
FULLERTON      CLOUDY    60  49  66 NW3       29.97S
LONG BEACH     PTCLDY    59  51  75 W7        29.98S
L.A. AP        PTCLDY    57  51  80 W3        29.99S
L.A. DOWNTOWN  MOCLDY    57  51  80 CALM      29.97F

$$

THE INLAND EMPIRE

CITY           SKY/WX    TMP DP  RH WIND       PRES   REMARKS
CORONA         CLOUDY    56  51  83 CALM      29.98S
CHINO          CLOUDY    57  50  77 W7        29.99S
ONTARIO        CLOUDY    56  50  80 SW5       29.97S
RIVERSIDE AP   CLOUDY    56  50  80 W8        29.97F
RIV CYN CREST    N/A     55  55 100 NW1         N/A
MORENO VALLEY    N/A     53  53  97 CALM      29.95S
MARCH ARB      MOCLDY    54  49  82 CALM      29.97S
HORSETHIEF CYN   N/A     51  46  82 CALM      29.95S
MENIFEE          N/A     54  52  91 CALM      30.03F
HEMET EAST       N/A     50  46  86 CALM      29.97F
FRENCH VALLEY  CLOUDY    54  50  87 S6        29.98S
TEMECULA         N/A     55  52  91 CALM      29.94F

$$

SAN BERNARDINO AND RIVERSIDE COUNTY MOUNTAINS

CITY           SKY/WX    TMP DP  RH WIND       PRES   REMARKS
BIG BEAR AP    CLEAR     34  30  86 SW6       29.97S WCI  29
ANGELUS OAKS     N/A     35  33  90 CALM      29.91S

$$

SOUTHERN DESERT INCLUDING THE COACHELLA VALLEY

CITY           SKY/WX    TMP DP  RH WIND       PRES   REMARKS
PALM SPRINGS   CLEAR     64  44  48 VRB6      29.84S
THOUSAND PALMS   N/A     64  46  51 W20       29.82S
THERMAL        CLEAR     65  46  50 NW12      29.82S
BLYTHE         CLEAR     63  48  58 W7        29.83R
IMPERIAL AP    CLEAR     62  46  55 W15       29.86R
EL CENTRO NAS  CLEAR     63  44  50 W17       29.89R
YUMA AZ        MOCLDY    63  45  51 N7        29.86S

$$

UPPER DESERT

CITY           SKY/WX    TMP DP  RH WIND       PRES   REMARKS
VICTORVILLE AP PTCLDY    52  34  50 W17G30    29.91F
HESPERIA         N/A     48  44  86 W7        30.05S
APPLE VALLEY     N/A     50  42  73 S3        30.01S
PALMDALE       MOCLDY    51  38  60 W15       29.96R
LANCASTER      PTCLDY    51  32  48 W29       29.93S
EDWARDS AFB    MOCLDY    54  32  42 SW20      29.89S
DAGGETT        PTCLDY    59  34  39 SW29G40   29.83S
29 PALMS N     PTCLDY    55  40  56 VRB3      29.91S
NEEDLES        CLEAR     64  36  35 SW8       29.79F

$$

REGIONAL REPORTS

CITY           SKY/WX    TMP DP  RH WIND       PRES   REMARKS
SANTA BARBARA  PTCLDY    52  45  77 CALM      29.98F
SANDBERG       CLEAR     43  30  60 NW20      29.99S
MT. WILSON       N/A     37  36  93 MISG        N/A
LAS VEGAS NV   MOCLDY    60  36  40 S10       29.73S
PHOENIX AZ     PTCLDY    64  41  42 E6        29.87S
TIJUANA        MOCLDY    57  48  72 CALM      30.01F
ENSENADA NW      N/A     59  32  35 N2        29.99R

$$

OFFSHORE ISLANDS

CITY           SKY/WX    TMP DP  RH WIND       PRES   REMARKS
CATALINA ARPT  PTCLDY    50  48  93 CALM      29.99R
SAN NICOLAS IS CLEAR    N/A N/A N/A NW29G39   29.99S

$$

MARINE AND OFFSHORE BUOY REPORTS

STATION/POSITION SKY/WX   TEMP    WIND        PRES    SWELL
                          AIR SEA DIR/SP/G            HT/PER/DIR
                          (F)     (DEG/KT/KT) (MB)    (FT/S/D)
TANNER BANKS               58 60  310/ 19/ 23 1016.2F   3/330/16
S CLEMENTE BASIN           59 63  270/ 12/ 16 1015.6F   5/290/ 7
SAN NICOLAS IS.               59                N/A     3/300/11
SO. S. ROSA ISLA           58 60  320/ 21/ 27 1015.2F   3/11
W. S. BARBARA CH           55 55  340/ 16/ 19 1015.9F   3/300/ 7
S. MONICA BASIN            58 61  320/  8/ 10 1015.5R   3/270/ 6
S PEDRO CHANNEL               60                N/A     2/260/11
DANA POINT                    62                N/A     2/210/12
OCEANSIDE OFFSHR              62                N/A     2/220/17
TORREY PINES OTR              63                N/A     2/220/14
LA JOLLA 1                 61 63  220/  7/  8 1015.3F
MISSION BAY BUOY              63                N/A     2/220/13
SAN DIEGO BAY                 67              1016.1F
POINT LOMA SOUTH              65                N/A     2/210/15

$$



USA.gov is the U.S. government's official web portal to all federal, state and local government web resources and services.